Cleveland, OH

9:25 AM EST on February 13, 2016 (GMT -0500)
Cleveland-Hopkins International

Weather History for KCLE - September, 2013

Change the Weather History Date:

Sunday, September 29, 2013

  Actual Average Record
Temperature  
Mean Temperature 65 °F 60 °F  
Max Temperature 73 °F 69 °F 95 °F (1953)
Min Temperature 57 °F 51 °F 32 °F (1942)
Degree Days  
Heating Degree Days 0 7  
Month to date heating degree days 86 84  
Since 1 July heating degree days 93 96  
Cooling Degree Days 0 1  
Month to date cooling degree days 93 86  
Year to date cooling degree days 855 801  
Growing Degree Days 15 (Base 50)    
Moisture  
Dew Point 56 °F    
Average Humidity 72    
Maximum Humidity 86    
Minimum Humidity 57    
Precipitation  
Precipitation 0.02 in 0.13 in 1.36 in (1973)
Month to date precipitation 1.89 3.69  
Year to date precipitation 30.10 29.23  
Snow  
Snow 0.00 in 0.00 in - ()
Month to date snowfall 0.0 0.0  
Since 1 July snowfall 0.0 0.0  
Since 1 September snowfall 0.0 0.0  
Snow Depth 0.00 in    
Sea Level Pressure  
Sea Level Pressure 30.05 in    
Wind  
Wind Speed 9 mph (South)    
Max Wind Speed 16 mph    
Max Gust Speed 21 mph    
Visibility 10 miles    
Events Rain    
T = Trace of Precipitation, MM = Missing Value Source: NWS Daily Summary

Daily Weather History Graph

Daily Weather History Graph

Search for Another Location

Airport or City:

Trip Planner

Search our weather history database for the weather conditions in past years. The results will help you decide how hot, cold, wet, or windy it might be!

Date:

Astronomy

Sep. 29, 2013 Rise Set
Actual Time 7:22 AM EDT 7:12 PM EDT
Civil Twilight 6:54 AM EDT 7:39 PM EDT
Nautical Twilight 6:22 AM EDT 8:11 PM EDT
Astronomical Twilight 5:50 AM EDT 8:44 PM EDT
Moon 1:59 AM EDT (9/29) 4:10 PM EDT (9/29)
Length of Visible Light 12h 45m
Length of Day
11h 49m
Waning Crescent, 27% of the Moon is Illuminated
Sep 29
Waning Crescent
Oct 4
New
Oct 11
First Quarter
Oct 18
Full
Oct 26
Last Quarter

Hourly Weather History & Observations

Time (EDT) Temp. Dew Point Humidity Pressure Visibility Wind Dir Wind Speed Gust Speed Precip Events Conditions
12:51 AM 62.1 °F 52.0 °F 70% 30.10 in 10.0 mi SSE 11.5 mph - N/A   Clear
1:51 AM 60.1 °F 52.0 °F 75% 30.09 in 10.0 mi SSE 12.7 mph - N/A   Clear
2:51 AM 59.0 °F 52.0 °F 78% 30.09 in 10.0 mi SSE 10.4 mph - N/A   Clear
3:51 AM 57.9 °F 51.1 °F 78% 30.08 in 10.0 mi SSE 10.4 mph - N/A   Partly Cloudy
4:51 AM 57.0 °F 51.1 °F 81% 30.07 in 10.0 mi SSE 10.4 mph - N/A   Scattered Clouds
5:51 AM 57.0 °F 51.1 °F 81% 30.07 in 10.0 mi South 11.5 mph - N/A   Scattered Clouds
6:51 AM 57.0 °F 52.0 °F 83% 30.07 in 10.0 mi South 10.4 mph - N/A   Scattered Clouds
7:51 AM 57.9 °F 53.1 °F 84% 30.08 in 10.0 mi South 9.2 mph - N/A   Scattered Clouds
8:51 AM 61.0 °F 54.0 °F 78% 30.07 in 10.0 mi South 11.5 mph - N/A   Scattered Clouds
9:51 AM 64.9 °F 55.0 °F 70% 30.06 in 10.0 mi South 13.8 mph - N/A   Mostly Cloudy
10:51 AM 68.0 °F 55.9 °F 65% 30.06 in 10.0 mi South 10.4 mph - N/A   Mostly Cloudy
11:51 AM 70.0 °F 57.0 °F 63% 30.06 in 10.0 mi South 9.2 mph - N/A   Overcast
12:51 PM 71.1 °F 57.0 °F 61% 30.05 in 10.0 mi South 8.1 mph - N/A   Overcast
1:51 PM 72.0 °F 57.0 °F 59% 30.03 in 10.0 mi South 10.4 mph - N/A   Overcast
2:51 PM 73.0 °F 57.0 °F 57% 30.01 in 10.0 mi South 8.1 mph - N/A   Overcast
3:51 PM 71.1 °F 57.9 °F 63% 30.00 in 10.0 mi SSW 4.6 mph - N/A   Overcast
4:51 PM 70.0 °F 57.9 °F 65% 30.01 in 10.0 mi SSW 4.6 mph - N/A   Overcast
5:51 PM 70.0 °F 59.0 °F 68% 30.00 in 10.0 mi South 4.6 mph - N/A   Overcast
6:51 PM 70.0 °F 59.0 °F 68% 30.01 in 10.0 mi South 5.8 mph - N/A   Overcast
7:51 PM 68.0 °F 59.0 °F 73% 30.01 in 10.0 mi WSW 8.1 mph - N/A   Overcast
8:51 PM 66.9 °F 57.9 °F 73% 30.04 in 10.0 mi SSW 8.1 mph - 0.00 in   Overcast
9:51 PM 64.0 °F 60.1 °F 87% 30.02 in 10.0 mi SSE 6.9 mph - 0.02 in Rain Light Rain
10:51 PM 64.0 °F 60.1 °F 87% 30.02 in 10.0 mi South 3.5 mph - 0.00 in Rain Light Rain
11:51 PM 64.0 °F 59.0 °F 84% 30.02 in 10.0 mi South 6.9 mph - 0.00 in   Overcast